Overview Statistics Trail Chart Weather Telemetry Raw packets
 

This is the latest recevied weather packets stored in our database for station/object WY7ATH-2. If no packets are shown the sender has not sent any weather packets the latest 10 day(s).

<< 21 22 23 24 25 26 27 >>
Time Temp. Humidity Pressure Rain* Wind** Luminosity Snow
1788060953 15.56° C - - 0 mm 9.39 m/s, 238° - -
1788060918 15.56° C - - 0 mm 9.39 m/s, 238° - -
1788059723 15.56° C - - 0 mm 4.92 m/s, 221° - -
1788059125 14.44° C - - 0 mm 9.83 m/s, 248° - -
1788058525 14.44° C - - 0 mm 3.58 m/s, 276° - -
1788057928 14.44° C - - 0 mm 8.05 m/s, 249° - -
1788057331 13.89° C - - 0 mm 7.15 m/s, 264° - -
1788056734 13.33° C - - 0 mm 3.58 m/s, 236° - -
1788056137 12.78° C - - 0 mm 0 m/s - -
1788054342 13.33° C - - 0 mm 0 m/s - -
1788053745 13.33° C - - 0 mm 0 m/s - -
1788051955 12.78° C - - 0 mm 4.47 m/s, 277° - -
1788050757 12.22° C - - 8.38 mm 8.49 m/s, 262° - -
1788050160 12.22° C - - 8.38 mm 9.39 m/s, 274° - -
1788049563 12.78° C - - 8.38 mm 9.83 m/s, 288° - -
1788048966 13.89° C - - 8.38 mm 0.89 m/s, 301° - -
1788047769 16.67° C - - 10.67 mm 6.71 m/s, 311° - -
1788047172 16.67° C - - 10.67 mm 7.6 m/s, 262° - -
1788045978 18.89° C - - 10.67 mm 11.18 m/s, 321° - -
1788045380 20.56° C - - 10.67 mm 10.28 m/s, 308° - -
1788044783 21.67° C - - 10.67 mm 8.94 m/s, 308° - -
1788043586 21.67° C - - 8.13 mm 7.15 m/s, 302° - -
1788042989 20.56° C - - 8.13 mm 5.36 m/s, 287° - -
1788041795 20.56° C - - 8.13 mm 0 m/s - -
1788040000 17.22° C - - 4.83 mm 0.45 m/s, 264° - -

* Rain latest hour (hover to see other rain measurements)
** Current wind speed in m/s (hover to see current wind gust speed)